TimeEST,TemperatureF,Dew PointF,Humidity,Sea Level PressureIn,VisibilityMPH,Wind Direction,Wind SpeedMPH,Gust SpeedMPH,PrecipitationIn,Events,Conditions,WindDirDegrees,DateUTC
12:54 AM,28.0,25.0,88,30.21,5.0,Calm,Calm,-,N/A,,Clear,0,2012-11-05 05:54:00
1:54 AM,28.0,26.1,92,30.20,7.0,Calm,Calm,-,N/A,,Clear,0,2012-11-05 06:54:00
2:54 AM,26.1,26.1,100,30.20,5.0,Calm,Calm,-,N/A,,Clear,0,2012-11-05 07:54:00
3:54 AM,24.1,23.0,96,30.21,5.0,West,3.5,-,N/A,,Clear,260,2012-11-05 08:54:00
4:07 AM,23.0,21.2,93,30.19,3.0,Calm,Calm,-,N/A,,Scattered Clouds,0,2012-11-05 09:07:00
4:09 AM,23.0,21.2,93,30.19,1.0,Calm,Calm,-,N/A,,Mist,0,2012-11-05 09:09:00
4:30 AM,24.8,23.0,93,30.19,1.2,Calm,Calm,-,N/A,,Scattered Clouds,0,2012-11-05 09:30:00
4:33 AM,24.8,23.0,93,30.19,3.0,Calm,Calm,-,N/A,,Scattered Clouds,0,2012-11-05 09:33:00
4:54 AM,24.1,23.0,96,30.20,2.0,Calm,Calm,-,N/A,,Clear,0,2012-11-05 09:54:00
5:05 AM,23.0,21.2,93,30.18,5.0,NE,3.5,-,N/A,,Clear,50,2012-11-05 10:05:00
5:54 AM,21.9,21.0,96,30.20,6.0,Calm,Calm,-,N/A,,Clear,0,2012-11-05 10:54:00
6:54 AM,21.9,19.9,92,30.21,0.5,Calm,Calm,-,N/A,Fog,Light Freezing Fog,0,2012-11-05 11:54:00
7:25 AM,23.0,21.2,93,30.19,6.0,Calm,Calm,-,N/A,Fog,Shallow Fog,0,2012-11-05 12:25:00
7:54 AM,21.9,21.0,96,30.21,6.0,Calm,Calm,-,N/A,Fog,Shallow Fog,0,2012-11-05 12:54:00
8:54 AM,28.9,27.0,92,30.21,7.0,Calm,Calm,-,N/A,,Clear,0,2012-11-05 13:54:00
9:54 AM,35.1,28.9,78,30.20,9.0,ESE,6.9,-,N/A,,Clear,110,2012-11-05 14:54:00
10:54 AM,37.9,28.0,68,30.21,10.0,ENE,10.4,-,N/A,,Clear,70,2012-11-05 15:54:00
11:54 AM,39.9,26.1,58,30.19,10.0,ENE,11.5,-,N/A,,Clear,70,2012-11-05 16:54:00
12:54 PM,41.0,27.0,57,30.17,10.0,East,5.8,-,N/A,,Clear,90,2012-11-05 17:54:00
1:54 PM,43.0,28.0,56,30.16,10.0,ENE,3.5,-,N/A,,Clear,60,2012-11-05 18:54:00
2:54 PM,43.0,28.0,56,30.14,10.0,ENE,6.9,-,N/A,,Clear,70,2012-11-05 19:54:00
3:54 PM,44.1,28.0,53,30.13,10.0,East,4.6,-,N/A,,Clear,80,2012-11-05 20:54:00
4:54 PM,42.1,27.0,55,30.14,10.0,East,8.1,-,N/A,,Clear,80,2012-11-05 21:54:00
5:54 PM,37.9,27.0,65,30.14,10.0,NE,5.8,-,N/A,,Clear,40,2012-11-05 22:54:00
6:54 PM,35.1,27.0,72,30.16,10.0,NE,4.6,-,N/A,,Clear,40,2012-11-05 23:54:00
7:54 PM,33.1,26.1,75,30.16,10.0,NE,5.8,-,N/A,,Clear,40,2012-11-06 00:54:00
8:54 PM,34.0,26.1,73,30.15,10.0,Calm,Calm,-,N/A,,Clear,0,2012-11-06 01:54:00
9:54 PM,32.0,26.1,79,30.16,10.0,NE,5.8,-,N/A,,Clear,50,2012-11-06 02:54:00
10:54 PM,30.9,26.1,82,30.14,10.0,Calm,Calm,-,N/A,,Clear,0,2012-11-06 03:54:00
11:54 PM,28.0,25.0,88,30.12,8.0,Calm,Calm,-,N/A,,Clear,0,2012-11-06 04:54:00